DW9584 Weather Reports


Display with metric or nautical units.
time (UTC)temp
F
wind
direction
speed
MPH
gust
MPH
rain 1hr
in
rain 24hr
in
rain mn
in
humidity
%
barometer
mb
20260505013027 60 79 0.0 0.0 0.00 0.00 0.00 58 1011.0
20260505011531 62 79 0.0 0.0 0.00 0.00 0.00 55 1011.0
20260505010027 63 79 0.0 1.0 0.00 0.00 0.00 52 1010.8
20260505004533 63 79 0.0 2.0 0.00 0.00 0.00 49 1010.7
20260505003021 64 82 0.0 2.0 0.00 0.00 0.00 47 1010.5
20260505001518 66 73 0.0 2.0 0.00 0.00 0.00 44 1010.4
20260505000027 67 221 0.0 2.0 0.00 0.00 0.00 44 1010.2
20260504234516 68 243 0.0 3.0 0.00 0.00 0.00 41 1010.1
20260504233027 68 170 1.0 3.0 0.00 0.00 0.00 41 1010.1
20260504231528 69 195 1.0 4.0 0.00 0.00 0.00 39 1010.1
20260504230028 69 152 0.0 5.0 0.00 0.00 0.00 39 1010.0
20260504224528 70 243 1.0 5.0 0.00 0.00 0.00 38 1010.0
20260504223023 70 229 1.0 12.0 0.00 0.00 0.00 37 1010.1
20260504221522 71 248 1.0 4.0 0.00 0.00 0.00 39 1010.1
20260504220018 71 290 1.0 12.0 0.00 0.00 0.00 36 1010.2
20260504214527 72 193 2.0 8.0 0.00 0.00 0.00 35 1010.2
20260504213047 71 123 1.0 5.0 0.00 0.00 0.00 37 1010.2
20260504211516 71 224 1.0 5.0 0.00 0.00 0.00 35 1010.2
20260504210011 72 162 1.0 6.0 0.00 0.00 0.00 36 1010.2
20260504204508 72 253 2.0 8.0 0.00 0.00 0.00 36 1010.3
20260504203008 72 53 1.0 6.0 0.00 0.00 0.00 34 1010.5
20260504201531 72 190 2.0 10.0 0.00 0.00 0.00 35 1010.6
20260504200024 71 165 2.0 7.0 0.00 0.00 0.00 35 1010.8
20260504194521 72 219 2.0 8.0 0.00 0.00 0.00 34 1010.8
20260504193016 71 218 0.0 6.0 0.00 0.00 0.00 36 1010.9
20260504191518 71 174 2.0 9.0 0.00 0.00 0.00 37 1011.0
20260504190013 71 157 2.0 7.0 0.00 0.00 0.00 35 1011.1
20260504184511 71 167 2.0 14.0 0.00 0.00 0.00 33 1011.4
20260504183028 71 128 1.0 9.0 0.00 0.00 0.00 34 1011.5
20260504181527 71 159 2.0 12.0 0.00 0.00 0.00 36 1011.8
20260504180024 71 179 2.0 6.0 0.00 0.00 0.00 35 1011.9
20260504174522 70 281 0.0 7.0 0.00 0.00 0.00 38 1012.1
20260504173031 70 293 2.0 9.0 0.00 0.00 0.00 33 1012.4
20260504171522 70 232 1.0 6.0 0.00 0.00 0.00 32 1012.6
20260504081515 40 210 0.0 0.0 0.00 0.00 0.00 87 1015.3
20260504044536 41 208 0.0 0.0 0.00 0.00 0.00 79 1015.2
20260504043021 42 208 0.0 0.0 0.00 0.00 0.00 79 1014.9
20260504041529 42 208 0.0 0.0 0.00 0.00 0.00 78 1014.8
20260504040032 42 208 0.0 0.0 0.00 0.00 0.00 75 1014.6
20260504034538 43 208 0.0 0.0 0.00 0.00 0.00 75 1014.5
20260504033036 43 208 0.0 0.0 0.00 0.00 0.00 74 1014.5
20260504031503 44 208 0.0 0.0 0.00 0.00 0.00 71 1014.4
20260504030004 44 208 0.0 0.0 0.00 0.00 0.00 70 1014.4
20260504024505 45 208 0.0 0.0 0.00 0.00 0.00 68 1014.4
20260504023004 45 208 0.0 0.0 0.00 0.00 0.00 65 1014.5
20260504021504 46 208 0.0 0.0 0.00 0.00 0.00 65 1014.4
20260504020008 46 208 0.0 0.0 0.00 0.00 0.00 62 1014.3
20260504014505 47 208 0.0 0.0 0.00 0.00 0.00 60 1014.2